sat.trackr.live / text

‹ back to catalog

STARLINK-31523

NORAD 59220 · 2024-046V

PAYLOAD ACTIVE UNKNOWN

§ Identity

Operator
Country
US
Launch date
2024-03-11
Launch site
AFWTR
Launch vehicle
Mass (kg)
RCS (m²)

Purposes: comms

External: N2YO · Heavens-Above · Gunter

§ Orbital elements

Epoch: 2026-05-24T12:48:08.065152Z

Period
93.85 min
Inclination
53.1600°
Eccentricity
0.0001154
Mean motion
15.34394783 rev/d
Perigee alt
461.9 km
Apogee alt
463.5 km
Semi-major
6,840.9 km
B*
4.6158e-6
RAAN
162.1954°
Arg perigee
80.2917°
Mean anomaly
279.8216°
Rev number
12,466

§ Raw data

STARLINK-315231 59220U 24046V   26144.53342668 -.00000220  00000+0  46158-5 0  99912 59220  53.1600 162.1954 0001154  80.2917 279.8216 15.34394783124662

JSON: /api/v1/satellites/59220 · /tle

For live sub-satellite position, see the globe view (requires WebGL).

§ Visibility from observer

Set your observer location to see the next 7 days of passes ≥ 10°. The values pass through the URL so the page stays shareable.

No JS? Fill the form by hand. The geolocation button needs JavaScript.